User: anonymous
Location: Fort Wayne
(41.1310°N, 85.1290°W)
Time: 08:09:37
(UTC-04:00)
Language:

BREEZE-M DEB (TANK) - Orbit

View from above orbital plane
View from above orbital plane
View from above satellite
View from above satellite

Ground track
Ground track

The orbit data is extracted from the following two-line orbital elements,

1 27821U 03024B   14110.85104750  .00011320  00000-0  91776-3 0  3822
2 27821 049.5657 215.0454 5036242 243.3816 331.6720 05.61063244214761
Epoch (UTC): 20 April 2014 20:25:30
Eccentricity: 0.5036242
inclination: 49.5657°
perigee height: 262 km
apogee height: 13737 km
right ascension of ascending node: 215.0454°
argument of perigee: 243.3816°
revolutions per day: 5.61063244
mean anomaly at epoch: 331.6720°
orbit number at epoch: 21476

The dashed part of the orbit path shows where the satellite is in the earth's shadow,  

DLR